Terminal Aerodrome Forecast
Issued by NWS

Home | Current Version | Previous Version | Text Only | Print | Product List | Glossary On
Versions: 1 2 3 4 5 6 7 8 9 10 11 12 13 14 15
000
FTUS46 KSGX 051720
TAFTRM
TAF
KTRM 051720Z 0518/0618 14010KT P6SM SKC
     FM060200 33015G25KT P6SM SKC
     FM061100 33011KT P6SM SKC=

USA.gov is the U.S. government's official web portal to all federal, state and local government web resources and services.